Terminal Aerodrome Forecast
Issued by NWS

Current Version | Previous Version | Text Only | Print | Product List | Glossary On
Versions: 1 2 3 4 5 6 7 8 9 10 11 12 13 14 15 16 17 18 19 20 21 22 23 24 25 26 27 28 29 30 31 32 33 34 35 36 37 38 39 40 41 42 43 44 45 46 47 48 49 50
000
FTAK31 PANC 211121 CCC
TAFASN
TAF COR
PASN 211121Z 2111/2212 02020G30KT P6SM OVC021
     FM211800 01015G24KT P6SM VCSH OVC015
     FM220500 36008G15KT P6SM OVC021=

USA.gov is the U.S. government's official web portal to all federal, state and local government web resources and services.